CT2IRK-11 SANTAREM PT current weather conditions

sailwx.info

Wind from 350 at 9 knots gusting 13

Air temperature 27.2° C
Dewpoint 17.4° C

Last reported at 2018-Apr-24 16:07 UTC.
Time now 2018-Apr-24 16:41 UTC

Location: N 39°22' W 008°29'.
View on Google Maps.

See reports from other nearby stations

  
Tides and Currents Weather Stations Pressure Air Temp Water Temp Dewpoint Dewpoint Depression Visibility Wind Speed Wind Dir Waves Ship Positions
date/time (UTC)wind fromknots sea level pressurealtimeterstation pressurevisibilityair tempwater tempwave heightnotes
2018-Apr-24 16:07 350 9 gusting 13 27.2
2018-Apr-24 16:02 352 7 gusting 13 27.8
2018-Apr-24 15:57 338 8 gusting 13 27.8
2018-Apr-24 15:52 353 9 gusting 13 27.8
2018-Apr-24 15:47 342 11 gusting 13 28.3
2018-Apr-24 15:42 021 9 gusting 12 28.3
2018-Apr-24 15:37 013 8 gusting 12 28.3
2018-Apr-24 15:32 316 7 gusting 12 28.3
2018-Apr-24 15:27 338 7 gusting 12 28.3
2018-Apr-24 15:22 303 8 gusting 12 28.9
2018-Apr-24 15:17 002 8 gusting 12 28.3
2018-Apr-24 15:12 025 8 gusting 12 28.9
2018-Apr-24 15:07 315 8 gusting 12 28.9
2018-Apr-24 15:02 328 8 gusting 12 28.9
2018-Apr-24 14:57 349 8 gusting 12 29.4
2018-Apr-24 14:52 351 9 gusting 12 28.9
2018-Apr-24 14:47 002 6 gusting 12 29.4
2018-Apr-24 14:42 349 6 gusting 12 29.4
2018-Apr-24 14:37 005 6 gusting 12 29.4
2018-Apr-24 14:32 315 6 gusting 12 29.4
2018-Apr-24 14:27 347 6 gusting 12 29.4
2018-Apr-24 14:22 320 6 gusting 12 29.4
2018-Apr-24 14:17 333 6 gusting 12 28.9
2018-Apr-24 14:12 011 6 gusting 12 28.9
2018-Apr-24 14:07 28.9
2018-Apr-24 14:02 313 6 gusting 12 29.4
2018-Apr-24 13:57 035 9 gusting 12 28.9
2018-Apr-24 13:52 009 8 gusting 12 29.4
2018-Apr-24 13:47 338 8 gusting 12 29.4
2018-Apr-24 13:42 353 6 gusting 12 29.4
2018-Apr-24 13:37 014 7 gusting 12 29.4
2018-Apr-24 13:32 338 10 gusting 12 29.4
2018-Apr-24 13:27 354 6 gusting 12 29.4
2018-Apr-24 13:22 338 6 gusting 12 29.4
2018-Apr-24 13:17 036 6 gusting 12 29.4
2018-Apr-24 13:12 023 6 gusting 12 29.4
2018-Apr-24 13:07 348 8 gusting 12 29.4
2018-Apr-24 13:02 025 6 gusting 12 29.4
2018-Apr-24 12:57 030 8 gusting 12 28.9
2018-Apr-24 12:52 022 6 gusting 12 29.4
2018-Apr-24 12:47 002 6 gusting 12 29.4
2018-Apr-24 12:42 038 6 gusting 12 29.4
2018-Apr-24 12:37 010 6 gusting 12 28.9
2018-Apr-24 12:32 022 6 gusting 12 28.9
2018-Apr-24 12:27 009 6 gusting 12 28.9
2018-Apr-24 12:22 28.9
2018-Apr-24 12:17 351 6 gusting 12 28.9
2018-Apr-24 12:12 036 5 gusting 12 28.9
2018-Apr-24 12:07 022 6 gusting 12 28.9
2018-Apr-24 12:02 031 6 gusting 12 29.4
2018-Apr-24 11:57 074 6 gusting 12 28.9
2018-Apr-24 11:52 028 6 gusting 12 28.3
2018-Apr-24 11:47 026 6 gusting 12 28.3
2018-Apr-24 11:42 063 6 gusting 12 28.3
2018-Apr-24 11:37 037 8 gusting 12 28.3
2018-Apr-24 11:32 069 6 gusting 11 27.8
2018-Apr-24 11:27 036 7 gusting 11 28.3
2018-Apr-24 11:22 048 6 gusting 11 28.3
2018-Apr-24 11:17 042 5 gusting 11 27.8
2018-Apr-24 11:12 058 6 gusting 11 28.3
2018-Apr-24 11:07 076 6 gusting 11 27.8
2018-Apr-24 11:02 058 6 gusting 11 27.8
2018-Apr-24 10:57 070 5 gusting 11 27.2
2018-Apr-24 10:52 023 6 gusting 11 27.2
2018-Apr-24 10:47 033 9 gusting 11 27.2
2018-Apr-24 10:42 035 8 gusting 11 27.2
2018-Apr-24 10:37 039 6 gusting 11 26.7
2018-Apr-24 10:32 031 7 gusting 11 26.7
2018-Apr-24 10:27 353 6 gusting 11 26.7
2018-Apr-24 10:22 047 6 gusting 11 26.7
2018-Apr-24 10:17 059 7 gusting 11 26.7
2018-Apr-24 10:12 034 6 gusting 11 26.1
2018-Apr-24 10:07 026 7 gusting 11 25.6
2018-Apr-24 10:02 042 8 gusting 11 25.6
2018-Apr-24 09:57 045 9 gusting 11 25.6
2018-Apr-24 09:52 077 6 gusting 11 25.0
2018-Apr-24 09:47 010 7 gusting 11 24.4
2018-Apr-24 09:42 034 6 gusting 11 24.4
2018-Apr-24 09:37 032 7 gusting 11 24.4
2018-Apr-24 09:32 028 7 gusting 11 23.9
2018-Apr-24 09:27 035 6 gusting 10 23.9
2018-Apr-24 09:22 359 6 gusting 10 23.9
2018-Apr-24 09:17 021 6 gusting 10 23.3
2018-Apr-24 09:12 027 5 gusting 10 23.3
2018-Apr-24 09:07 050 4 gusting 10 22.8
2018-Apr-24 09:02 059 5 gusting 10 22.8
2018-Apr-24 08:57 043 6 gusting 10 22.2
2018-Apr-24 08:52 042 6 gusting 10 21.7
2018-Apr-24 08:47 033 5 gusting 10 21.7
2018-Apr-24 08:42 045 6 gusting 10 21.7
2018-Apr-24 08:37 022 4 gusting 10 21.1
2018-Apr-24 08:32 044 6 gusting 10 21.1
2018-Apr-24 08:27 029 5 gusting 10 21.1
2018-Apr-24 08:22 032 4 gusting 10 20.6
2018-Apr-24 08:17 045 4 gusting 10 20.6
2018-Apr-24 08:12 039 4 gusting 10 20.0
2018-Apr-24 08:07 045 3 gusting 10 20.0
2018-Apr-24 08:02 022 4 gusting 10 20.0
2018-Apr-24 07:57 031 4 gusting 10 20.0
2018-Apr-24 07:52 022 5 gusting 10 20.0
2018-Apr-24 07:47 043 4 gusting 10 20.0
2018-Apr-24 07:42 035 4 gusting 10 20.0
2018-Apr-24 07:37 056 4 gusting 10 19.4
2018-Apr-24 07:32 047 3 gusting 10 19.4
2018-Apr-24 07:27 022 4 gusting 10 18.9
2018-Apr-24 07:22 045 4 gusting 10 18.9
2018-Apr-24 07:17 045 4 gusting 10 18.9
2018-Apr-24 07:12 048 5 gusting 10 18.3
2018-Apr-24 07:07 050 4 gusting 10 18.3
2018-Apr-24 07:02 034 3 gusting 10 17.8
2018-Apr-24 06:57 031 2 gusting 10 17.8
2018-Apr-24 06:52 085 3 gusting 10 17.2
2018-Apr-24 06:47 065 2 gusting 10 16.7
2018-Apr-24 06:42 046 3 gusting 10 16.7
2018-Apr-24 06:37 055 3 gusting 10 16.1
2018-Apr-24 06:32 062 3 gusting 10 15.6
2018-Apr-24 06:27 072 2 gusting 10 15.6
2018-Apr-24 06:22 045 1 gusting 10 15.0
2018-Apr-24 06:17 022 2 gusting 10 15.0
2018-Apr-24 06:12 043 2 gusting 10 15.0
2018-Apr-24 06:07 022 2 gusting 10 15.0
2018-Apr-24 06:02 022 2 gusting 10 15.6
2018-Apr-24 05:57 056 3 gusting 10 15.6
2018-Apr-24 05:52 026 3 gusting 10 15.6
2018-Apr-24 05:47 036 3 gusting 10 15.6
2018-Apr-24 05:42 045 2 gusting 10 15.6
2018-Apr-24 05:37 022 2 gusting 10 15.6
2018-Apr-24 05:32 022 2 gusting 10 15.6
2018-Apr-24 05:27 009 2 gusting 10 15.6
2018-Apr-24 05:22 349 2 gusting 10 15.6
2018-Apr-24 05:17 357 2 gusting 10 15.6
2018-Apr-24 05:12 022 1 gusting 10 16.1
2018-Apr-24 05:07 022 16.1
2018-Apr-24 05:02 044 2 gusting 10 16.1
2018-Apr-24 04:57 068 4 gusting 10 16.1
2018-Apr-24 04:52 060 4 gusting 10 16.1
2018-Apr-24 04:47 036 5 gusting 10 16.7
2018-Apr-24 04:42 022 6 gusting 10 16.7
2018-Apr-24 04:37 041 6 gusting 10 16.7
2018-Apr-24 04:32 029 8 gusting 10 17.2
2018-Apr-24 04:27 060 7 gusting 10 17.2
2018-Apr-24 04:22 045 6 gusting 10 17.2
2018-Apr-24 04:17 045 6 gusting 10 17.2
2018-Apr-24 04:12 035 8 gusting 10 17.2
2018-Apr-24 04:07 033 7 gusting 9 17.2
2018-Apr-24 04:02 043 7 gusting 9 16.7
2018-Apr-24 03:57 072 6 gusting 8 16.7
2018-Apr-24 03:52 045 6 gusting 8 16.1
2018-Apr-24 03:47 055 4 gusting 8 15.6
2018-Apr-24 03:42 022 4 gusting 8 15.6
2018-Apr-24 03:37 022 4 gusting 8 15.6
2018-Apr-24 03:32 004 3 gusting 8 15.6
2018-Apr-24 03:27 033 4 gusting 8 15.6
2018-Apr-24 03:22 032 3 gusting 8 16.1
2018-Apr-24 03:17 028 4 gusting 8 16.1
2018-Apr-24 03:12 008 4 gusting 8 16.1
2018-Apr-24 03:07 349 3 gusting 8 16.1
2018-Apr-24 03:02 358 2 gusting 8 16.7
2018-Apr-24 02:57 356 3 gusting 8 16.7
2018-Apr-24 02:52 024 2 gusting 8 17.2
2018-Apr-24 02:47 045 1 gusting 8 17.2
2018-Apr-24 02:42 033 2 gusting 8 17.2
2018-Apr-24 02:37 035 4 gusting 8 17.2
2018-Apr-24 02:32 039 4 gusting 8 17.2
2018-Apr-24 02:27 037 4 gusting 8 17.2
2018-Apr-24 02:22 035 4 gusting 8 17.2
2018-Apr-24 02:17 022 3 gusting 8 17.2
2018-Apr-24 02:12 043 3 gusting 8 17.2
2018-Apr-24 02:07 022 3 gusting 8 17.2
2018-Apr-24 02:02 029 3 gusting 8 17.2
2018-Apr-24 01:57 045 3 gusting 8 17.2
2018-Apr-24 01:52 025 4 gusting 8 17.2
2018-Apr-24 01:47 022 4 gusting 8 17.2
2018-Apr-24 01:42 024 3 gusting 8 17.2
2018-Apr-24 01:37 045 4 gusting 8 17.2
2018-Apr-24 01:32 022 4 gusting 8 17.8
2018-Apr-24 01:27 033 5 gusting 8 17.8
2018-Apr-24 01:22 022 5 gusting 8 17.8
2018-Apr-24 01:17 037 5 gusting 8 17.8
2018-Apr-24 01:12 032 4 gusting 8 17.8
2018-Apr-24 01:07 022 4 gusting 8 18.3
2018-Apr-24 01:02 028 5 gusting 8 18.3
2018-Apr-24 00:57 038 5 gusting 8 18.3
2018-Apr-24 00:52 045 4 gusting 8 18.3
2018-Apr-24 00:47 045 4 gusting 8 18.3
2018-Apr-24 00:42 022 4 gusting 8 18.3
2018-Apr-24 00:37 028 4 gusting 8 18.3
2018-Apr-24 00:32 041 4 gusting 8 18.3
2018-Apr-24 00:27 024 4 gusting 8 18.9
2018-Apr-24 00:22 053 4 gusting 8 18.9
2018-Apr-24 00:17 034 4 gusting 8 18.9
2018-Apr-24 00:12 023 3 gusting 8 18.9
2018-Apr-24 00:07 039 4 gusting 8 19.4
2018-Apr-24 00:02 045 5 gusting 8 19.4
2018-Apr-23 23:57 022 5 gusting 8 19.4
2018-Apr-23 23:52 036 6 gusting 8 19.4
2018-Apr-23 23:47 029 5 gusting 8 19.4
2018-Apr-23 23:42 035 6 gusting 8 19.4
2018-Apr-23 23:37 030 5 gusting 8 19.4
2018-Apr-23 23:32 029 6 gusting 8 19.4
2018-Apr-23 23:27 038 5 gusting 8 20.0
2018-Apr-23 23:22 022 5 gusting 8 20.0
2018-Apr-23 23:17 022 6 gusting 8 20.0
2018-Apr-23 23:12 023 5 gusting 8 20.0
2018-Apr-23 23:07 033 6 gusting 8 20.0
2018-Apr-23 23:02 054 6 20.0
2018-Apr-23 22:57 035 6 gusting 15 20.0
2018-Apr-23 22:52 068 6 gusting 15 20.0
2018-Apr-23 22:47 081 5 gusting 15 20.0
2018-Apr-23 22:42 056 6 gusting 15 20.0
2018-Apr-23 22:37 045 6 gusting 15 20.0
2018-Apr-23 22:32 022 6 gusting 15 20.0
2018-Apr-23 22:27 020 6 gusting 15 20.6
2018-Apr-23 22:22 045 6 gusting 15 20.6
2018-Apr-23 22:17 068 7 gusting 15 20.6
2018-Apr-23 22:12 032 6 gusting 15 20.6
2018-Apr-23 22:07 054 6 gusting 15 20.6
2018-Apr-23 22:02 051 6 gusting 15 20.6
2018-Apr-23 21:57 065 6 gusting 15 20.6
2018-Apr-23 21:52 051 6 gusting 15 20.6
2018-Apr-23 21:47 049 7 gusting 15 20.6
2018-Apr-23 21:42 068 7 gusting 15 20.6
2018-Apr-23 21:37 045 6 gusting 15 20.6
2018-Apr-23 21:32 076 6 gusting 15 20.6
2018-Apr-23 21:27 061 6 gusting 15 20.6
2018-Apr-23 21:22 054 6 gusting 15 20.6
2018-Apr-23 21:17 058 6 gusting 15 20.6
2018-Apr-23 21:12 058 6 gusting 15 20.6
2018-Apr-23 21:07 045 6 gusting 15 20.6
2018-Apr-23 21:02 045 6 gusting 15 21.1
2018-Apr-23 20:57 068 6 gusting 15 21.1
2018-Apr-23 20:52 053 6 gusting 15 21.1
2018-Apr-23 20:47 056 6 gusting 15 21.1
2018-Apr-23 20:42 045 6 gusting 15 21.1
2018-Apr-23 20:37 047 7 gusting 15 21.1
2018-Apr-23 20:32 022 5 gusting 15 21.1
2018-Apr-23 20:27 034 6 gusting 15 21.1
2018-Apr-23 20:22 045 6 gusting 15 21.1
2018-Apr-23 20:17 039 6 gusting 15 21.7
2018-Apr-23 20:12 026 5 gusting 15 21.7
2018-Apr-23 20:07 039 6 gusting 15 21.7
2018-Apr-23 20:02 035 5 gusting 15 21.7
2018-Apr-23 19:57 037 6 gusting 15 21.7
2018-Apr-23 19:52 044 4 gusting 15 21.7
2018-Apr-23 19:47 054 5 gusting 15 21.7
2018-Apr-23 19:42 065 5 gusting 15 21.7
2018-Apr-23 19:37 022 4 gusting 15 22.2
2018-Apr-23 19:32 035 4 gusting 15 22.2
2018-Apr-23 19:27 050 5 gusting 15 22.2
2018-Apr-23 19:22 058 4 gusting 15 22.2
2018-Apr-23 19:17 047 4 gusting 15 22.2
2018-Apr-23 19:12 056 4 gusting 15 22.8
2018-Apr-23 19:07 026 6 gusting 15 22.8
2018-Apr-23 19:02 043 4 gusting 15 22.8
2018-Apr-23 18:57 023 4 gusting 15 22.8
2018-Apr-23 18:52 034 4 gusting 15 23.3
2018-Apr-23 18:47 032 3 gusting 15 23.3
2018-Apr-23 18:42 057 6 gusting 15 23.9
2018-Apr-23 18:37 032 6 gusting 15 23.9
2018-Apr-23 18:32 012 8 gusting 15 24.4
2018-Apr-23 18:27 008 10 gusting 15 25.0
2018-Apr-23 18:22 017 11 gusting 15 25.6
2018-Apr-23 18:17 336 6 gusting 15 27.8
2018-Apr-23 18:12 045 3 gusting 15 28.3
2018-Apr-23 18:07 034 4 gusting 15 28.3
2018-Apr-23 18:02 051 3 gusting 15 28.3
2018-Apr-23 17:57 078 4 gusting 15 28.3
2018-Apr-23 17:52 061 6 gusting 15 28.3
2018-Apr-23 17:47 047 6 gusting 15 28.3
2018-Apr-23 17:42 035 5 gusting 15 28.9
2018-Apr-23 17:37 084 6 gusting 15 28.9
2018-Apr-23 17:32 068 5 gusting 15 28.9
2018-Apr-23 17:27 045 6 gusting 15 28.9
2018-Apr-23 17:22 060 5 gusting 15 28.9
2018-Apr-23 17:18 039 6 gusting 15 28.9
2018-Apr-23 17:12 035 5 gusting 15 28.9
2018-Apr-23 17:07 033 4 gusting 15 28.9
2018-Apr-23 17:02 045 6 gusting 15 28.9
2018-Apr-23 16:57 069 8 gusting 15 28.9
2018-Apr-23 16:52 099 5 gusting 15 28.9
2018-Apr-23 16:47 081 8 gusting 15 28.9
2018-Apr-23 16:42 056 6 gusting 15 28.9
2018-Apr-23 16:37 033 6 gusting 15 28.3
2018-Apr-23 16:32 045 6 gusting 15 28.3
2018-Apr-23 16:27 031 6 gusting 15 28.3
2018-Apr-23 16:22 025 8 gusting 15 28.3
2018-Apr-23 16:17 045 8 gusting 15 28.3
2018-Apr-23 16:12 069 6 gusting 15 28.3
2018-Apr-23 16:07 076 6 gusting 15 28.3
2018-Apr-23 16:02 055 10 gusting 15 28.3
2018-Apr-23 15:57 080 6 gusting 15 28.3
2018-Apr-23 15:52 052 9 gusting 15 28.3
2018-Apr-23 15:47 068 8 gusting 15 28.3
2018-Apr-23 15:42 057 9 gusting 15 28.9
2018-Apr-23 15:37 078 8 gusting 14 28.3
2018-Apr-23 15:32 068 8 gusting 14 28.3
2018-Apr-23 15:27 090 6 gusting 14 28.3
2018-Apr-23 15:22 068 8 gusting 14 28.3
2018-Apr-23 15:17 072 9 gusting 14 28.9
2018-Apr-23 15:12 077 6 gusting 14 28.9
2018-Apr-23 15:07 060 5 gusting 14 28.9
2018-Apr-23 15:02 079 7 gusting 14 28.9
2018-Apr-23 14:57 057 7 gusting 14 28.9
2018-Apr-23 14:52 100 10 gusting 14 28.9
2018-Apr-23 14:47 062 8 gusting 14 28.9
2018-Apr-23 14:42 084 7 gusting 14 28.9
2018-Apr-23 14:37 068 11 gusting 13 29.4
2018-Apr-23 14:32 045 6 gusting 11 29.4
2018-Apr-23 14:27 057 8 gusting 11 29.4
2018-Apr-23 14:22 045 6 gusting 11 28.9
2018-Apr-23 14:17 045 7 gusting 11 29.4
2018-Apr-23 14:12 044 6 gusting 11 28.9
2018-Apr-23 14:07 045 8 gusting 11 28.9
2018-Apr-23 14:02 033 4 gusting 11 28.9
2018-Apr-23 13:57 038 6 gusting 11 28.9
2018-Apr-23 13:52 058 5 gusting 11 28.3
2018-Apr-23 13:47 037 6 gusting 11 27.8
2018-Apr-23 13:42 28.3
2018-Apr-23 13:37 054 5 gusting 11 27.8
2018-Apr-23 13:32 053 3 gusting 11 27.8
2018-Apr-23 13:27 002 6 gusting 11 27.8
2018-Apr-23 13:22 082 6 gusting 11 27.8
2018-Apr-23 13:17 014 4 gusting 11 27.2
2018-Apr-23 13:12 034 5 gusting 11 27.2
2018-Apr-23 13:07 353 4 gusting 11 27.2
2018-Apr-23 13:02 033 6 gusting 11 27.2
2018-Apr-23 12:57 026 6 gusting 11 26.7
2018-Apr-23 12:52 068 6 gusting 11 27.2
2018-Apr-23 12:47 035 6 gusting 11 26.7
2018-Apr-23 12:42 057 6 gusting 11 26.7
2018-Apr-23 12:37 034 6 gusting 11 26.7
2018-Apr-23 12:32 045 6 gusting 11 26.1
2018-Apr-23 12:27 022 8 gusting 11 26.1
2018-Apr-23 12:22 049 7 gusting 11 25.6
2018-Apr-23 12:17 026 6 gusting 11 25.6
2018-Apr-23 12:12 325 6 gusting 11 25.6
2018-Apr-23 12:07 040 6 gusting 11 25.6
2018-Apr-23 12:02 022 6 gusting 11 25.6
2018-Apr-23 11:57 024 7 gusting 11 25.0
2018-Apr-23 11:52 045 6 gusting 9 25.6
2018-Apr-23 11:47 012 6 gusting 9 25.6
2018-Apr-23 11:42 034 6 gusting 9 25.6
2018-Apr-23 11:37 357 6 gusting 9 25.0
2018-Apr-23 11:32 022 6 gusting 9 25.0
2018-Apr-23 11:27 037 5 gusting 9 24.4
2018-Apr-23 11:22 042 7 gusting 9 24.4
2018-Apr-23 11:17 045 6 gusting 9 25.0
2018-Apr-23 11:12 017 6 gusting 9 24.4
2018-Apr-23 11:07 342 5 gusting 9 23.9
2018-Apr-23 11:02 347 5 gusting 9 23.9
2018-Apr-23 10:57 340 5 gusting 9 23.3
2018-Apr-23 10:52 008 4 gusting 9 23.3
2018-Apr-23 10:47 010 4 gusting 9 23.3
2018-Apr-23 10:42 018 4 gusting 9 22.8
2018-Apr-23 10:37 019 6 gusting 9 22.2
2018-Apr-23 10:32 356 4 gusting 9 22.2
2018-Apr-23 10:27 034 5 gusting 9 21.7
2018-Apr-23 10:22 012 5 gusting 9 21.7
2018-Apr-23 10:17 350 5 gusting 9 21.7
2018-Apr-23 10:12 016 3 gusting 9 21.1
2018-Apr-23 10:07 001 3 gusting 9 21.1
2018-Apr-23 10:02 036 4 gusting 9 20.6
2018-Apr-23 09:57 061 5 gusting 9 20.6
2018-Apr-23 09:52 022 6 gusting 9 20.0
2018-Apr-23 09:47 030 6 gusting 9 19.4
2018-Apr-23 09:42 036 6 gusting 9 19.4
2018-Apr-23 09:37 032 6 gusting 9 19.4
2018-Apr-23 09:32 031 6 gusting 9 19.4
2018-Apr-23 09:27 056 7 gusting 9 19.4
2018-Apr-23 09:22 056 6 gusting 9 18.9
2018-Apr-23 09:17 036 5 gusting 9 18.3
2018-Apr-23 09:12 037 6 gusting 9 17.8
2018-Apr-23 09:07 022 6 gusting 9 17.8
2018-Apr-23 09:02 059 6 gusting 9 17.2
2018-Apr-23 08:57 057 5 gusting 9 17.2
2018-Apr-23 08:52 034 5 gusting 9 17.2
2018-Apr-23 08:47 054 4 gusting 9 16.7
2018-Apr-23 08:42 045 5 gusting 9 16.7
2018-Apr-23 08:37 072 3 gusting 9 16.1
2018-Apr-23 08:32 022 4 gusting 9 16.1
2018-Apr-23 08:27 022 3 gusting 9 15.6
2018-Apr-23 08:22 023 4 gusting 9 15.6
2018-Apr-23 08:17 351 3 gusting 9 15.6
2018-Apr-23 08:12 031 3 gusting 9 16.1
2018-Apr-23 08:07 016 2 gusting 9 16.1
2018-Apr-23 08:02 028 16.1
2018-Apr-23 07:57 034 1 gusting 9 15.6
2018-Apr-23 07:52 030 2 gusting 9 15.6
2018-Apr-23 07:47 041 2 gusting 9 15.0
2018-Apr-23 07:42 061 4 gusting 9 15.0
2018-Apr-23 07:37 072 4 gusting 9 14.4
2018-Apr-23 07:32 022 3 gusting 9 14.4
2018-Apr-23 07:27 024 3 gusting 9 14.4
2018-Apr-23 07:22 032 2 gusting 9 14.4
2018-Apr-23 07:17 046 3 gusting 9 13.9
2018-Apr-23 07:12 029 13.9
2018-Apr-23 07:07 031 0 gusting 9 13.9
2018-Apr-23 07:02 036 1 gusting 9 13.9
2018-Apr-23 06:57 074 2 gusting 9 13.3
2018-Apr-23 06:52 002 0 gusting 9 13.3
2018-Apr-23 06:47 358 2 gusting 9 13.3
2018-Apr-23 06:42 022 2 gusting 9 13.3
2018-Apr-23 06:37 040 3 gusting 9 13.3
2018-Apr-23 06:32 036 3 gusting 9 13.3
2018-Apr-23 06:27 339 2 gusting 9 13.3
2018-Apr-23 06:22 333 0 gusting 9 13.3
2018-Apr-23 06:17 043 2 gusting 9 13.3
2018-Apr-23 06:12 045 5 gusting 9 13.3
2018-Apr-23 06:07 081 5 gusting 9 13.3
2018-Apr-23 06:02 058 4 gusting 9 13.3
2018-Apr-23 05:57 045 4 gusting 9 13.3
2018-Apr-23 05:52 045 5 gusting 9 13.3
2018-Apr-23 05:47 047 5 gusting 9 13.3
2018-Apr-23 05:42 068 5 gusting 9 13.3
2018-Apr-23 05:37 054 4 gusting 9 13.3
2018-Apr-23 05:32 045 4 gusting 9 13.3
2018-Apr-23 05:27 045 4 gusting 9 13.3
2018-Apr-23 05:22 067 4 gusting 9 13.3
2018-Apr-23 05:17 052 4 gusting 9 13.3
2018-Apr-23 05:12 027 2 gusting 9 13.3
2018-Apr-23 05:07 022 2 gusting 9 13.3
2018-Apr-23 05:02 047 3 gusting 9 13.3
2018-Apr-23 04:57 029 3 gusting 9 13.9
2018-Apr-23 04:52 043 2 gusting 9 13.9
2018-Apr-23 04:47 009 2 gusting 9 13.9
2018-Apr-23 04:42 049 2 gusting 9 13.9
2018-Apr-23 04:37 022 3 gusting 9 13.9
2018-Apr-23 04:32 022 2 gusting 9 13.9
2018-Apr-23 04:27 078 3 gusting 9 13.9
2018-Apr-23 04:22 066 3 gusting 9 13.9
2018-Apr-23 04:17 013 3 gusting 9 13.9
2018-Apr-23 04:12 025 3 gusting 9 13.9
2018-Apr-23 04:07 022 2 gusting 9 13.9
2018-Apr-23 04:02 080 2 gusting 9 13.9
2018-Apr-23 03:57 046 3 gusting 9 13.9
2018-Apr-23 03:52 045 2 gusting 9 13.9
2018-Apr-23 03:47 034 3 gusting 9 13.9
2018-Apr-23 03:42 036 2 gusting 9 13.9
2018-Apr-23 03:37 022 2 gusting 9 14.4
2018-Apr-23 03:32 034 3 gusting 9 14.4
2018-Apr-23 03:27 032 3 gusting 9 14.4
2018-Apr-23 03:22 037 2 gusting 9 14.4
2018-Apr-23 03:17 035 3 gusting 9 14.4
2018-Apr-23 03:12 064 3 gusting 9 14.4
2018-Apr-23 03:07 357 2 gusting 9 14.4
2018-Apr-23 03:02 022 3 gusting 9 14.4
2018-Apr-23 02:57 037 3 gusting 9 14.4
2018-Apr-23 02:52 068 3 gusting 9 14.4
2018-Apr-23 02:47 035 2 gusting 9 14.4
2018-Apr-23 02:42 022 3 gusting 9 14.4
2018-Apr-23 02:37 018 4 gusting 9 14.4
2018-Apr-23 02:32 028 4 gusting 9 14.4
2018-Apr-23 02:27 022 3 gusting 9 14.4
2018-Apr-23 02:22 026 4 gusting 9 14.4
2018-Apr-23 02:17 015 4 gusting 9 14.4
2018-Apr-23 02:12 045 3 gusting 9 14.4
2018-Apr-23 02:07 045 4 gusting 9 14.4
2018-Apr-23 02:02 057 4 gusting 9 14.4
2018-Apr-23 01:57 037 3 gusting 9 15.0
2018-Apr-23 01:52 045 5 gusting 9 15.0
2018-Apr-23 01:47 055 6 gusting 9 15.0
2018-Apr-23 01:42 063 5 gusting 9 15.0
2018-Apr-23 01:37 059 6 gusting 9 15.0
2018-Apr-23 01:32 018 4 gusting 9 15.0
2018-Apr-23 01:27 022 6 gusting 9 15.0
2018-Apr-23 01:22 046 4 gusting 9 15.0
2018-Apr-23 01:17 042 6 gusting 9 15.0
2018-Apr-23 01:12 031 6 gusting 9 15.0
2018-Apr-23 01:07 059 6 gusting 9 15.0
2018-Apr-23 01:02 045 6 gusting 9 15.0
2018-Apr-23 00:57 057 5 gusting 9 15.6
2018-Apr-23 00:52 022 7 gusting 9 15.6
2018-Apr-23 00:47 010 6 gusting 9 15.6
2018-Apr-23 00:42 070 6 gusting 9 15.6
2018-Apr-23 00:37 022 6 gusting 9 15.6
2018-Apr-23 00:32 022 6 gusting 9 15.6
2018-Apr-23 00:27 028 6 gusting 9 15.6
2018-Apr-23 00:22 022 6 gusting 9 15.6
2018-Apr-23 00:17 022 6 gusting 9 15.6
2018-Apr-23 00:12 031 6 gusting 9 15.6
2018-Apr-23 00:07 036 6 gusting 9 15.6
2018-Apr-23 00:02 056 7 gusting 9 16.1
2018-Apr-22 23:57 031 7 gusting 9 16.1
2018-Apr-22 23:52 032 8 gusting 9 16.1
2018-Apr-22 23:47 009 6 gusting 9 16.1
2018-Apr-22 23:42 035 6 gusting 8 16.1
2018-Apr-22 23:37 035 6 gusting 8 16.1
2018-Apr-22 23:32 026 6 gusting 8 16.1
2018-Apr-22 23:27 039 5 gusting 7 16.1
2018-Apr-22 23:22 022 6 gusting 7 16.1
2018-Apr-22 23:17 035 6 gusting 7 16.7
2018-Apr-22 23:12 055 6 gusting 7 16.7
2018-Apr-22 23:07 049 6 gusting 6 16.7
2018-Apr-22 23:02 056 5 16.7
2018-Apr-22 22:57 054 6 gusting 13 16.7
2018-Apr-22 22:52 068 6 gusting 13 16.7
2018-Apr-22 22:47 025 6 gusting 13 17.2
2018-Apr-22 22:42 050 6 gusting 13 17.2
2018-Apr-22 22:37 051 6 gusting 13 17.2
2018-Apr-22 22:32 068 7 gusting 13 17.2
2018-Apr-22 22:27 041 5 gusting 13 17.2
2018-Apr-22 22:22 052 7 gusting 13 17.2
2018-Apr-22 22:17 059 7 gusting 13 17.2
2018-Apr-22 22:12 045 6 gusting 13 17.2
2018-Apr-22 22:07 045 6 gusting 13 17.2
2018-Apr-22 22:02 066 6 gusting 13 17.2
2018-Apr-22 21:57 054 6 gusting 13 17.8
2018-Apr-22 21:52 045 6 gusting 13 17.8
2018-Apr-22 21:47 095 5 gusting 13 17.8
2018-Apr-22 21:42 056 5 gusting 13 17.8
2018-Apr-22 21:37 057 6 gusting 13 17.8
2018-Apr-22 21:32 036 6 gusting 13 17.8
2018-Apr-22 21:27 022 5 gusting 13 17.8
2018-Apr-22 21:22 055 6 gusting 13 17.8
2018-Apr-22 21:17 059 5 gusting 13 17.8
2018-Apr-22 21:12 050 6 gusting 13 17.8
2018-Apr-22 21:07 055 6 gusting 13 17.8
2018-Apr-22 21:02 058 6 gusting 13 17.8
2018-Apr-22 20:57 045 6 gusting 13 18.3
2018-Apr-22 20:52 039 5 gusting 13 18.3
2018-Apr-22 20:47 036 5 gusting 13 18.3
2018-Apr-22 20:42 062 5 gusting 13 18.3
2018-Apr-22 20:37 068 4 gusting 13 18.3
2018-Apr-22 20:32 056 4 gusting 13 18.3
2018-Apr-22 20:27 028 5 gusting 13 18.3
2018-Apr-22 20:22 045 5 gusting 13 18.9
2018-Apr-22 20:17 036 5 gusting 13 18.9
2018-Apr-22 20:12 033 5 gusting 13 18.9
2018-Apr-22 20:07 040 5 gusting 13 18.9
2018-Apr-22 20:02 022 5 gusting 13 18.9
2018-Apr-22 19:57 033 4 gusting 13 19.4
2018-Apr-22 19:52 024 4 gusting 13 19.4
2018-Apr-22 19:47 043 5 gusting 13 19.4
2018-Apr-22 19:42 035 4 gusting 13 20.0
2018-Apr-22 19:37 036 4 gusting 13 20.0
2018-Apr-22 19:32 062 4 gusting 13 20.0
2018-Apr-22 19:27 025 5 gusting 13 20.6
2018-Apr-22 19:22 067 4 gusting 13 20.6
2018-Apr-22 19:17 003 5 gusting 13 20.6
2018-Apr-22 19:12 358 4 gusting 13 21.1
2018-Apr-22 19:07 043 2 gusting 13 21.7
2018-Apr-22 19:02 045 2 gusting 13 21.7
2018-Apr-22 18:57 033 2 gusting 13 22.2
2018-Apr-22 18:52 030 1 gusting 13 22.2
2018-Apr-22 18:47 045 1 gusting 13 22.2
2018-Apr-22 18:42 045 22.8
2018-Apr-22 18:37 034 2 gusting 13 22.8
2018-Apr-22 18:32 011 2 gusting 13 22.8
2018-Apr-22 18:27 017 2 gusting 13 23.3
2018-Apr-22 18:22 358 2 gusting 13 23.3
2018-Apr-22 18:17 017 3 gusting 13 23.3
2018-Apr-22 18:12 029 3 gusting 13 23.3
2018-Apr-22 18:07 012 3 gusting 13 23.3
2018-Apr-22 18:02 016 4 gusting 13 23.9
2018-Apr-22 17:57 037 4 gusting 13 23.9
2018-Apr-22 17:52 003 3 gusting 13 24.4
2018-Apr-22 17:47 032 1 gusting 13 24.4
2018-Apr-22 17:42 022 4 gusting 13 24.4
2018-Apr-22 17:37 008 2 gusting 13 23.9
2018-Apr-22 17:32 007 3 gusting 13 23.9
2018-Apr-22 17:27 020 5 gusting 13 23.9
2018-Apr-22 17:22 022 5 gusting 13 23.3
2018-Apr-22 17:17 355 5 gusting 13 23.3
2018-Apr-22 17:12 031 6 gusting 13 23.3
2018-Apr-22 17:07 23.3
2018-Apr-22 17:02 021 5 gusting 13 23.3
2018-Apr-22 16:57 024 5 gusting 13 23.3
2018-Apr-22 16:52 013 5 gusting 13 23.9
2018-Apr-22 16:47 030 5 gusting 13 23.3
2018-Apr-22 16:42 008 5 gusting 13 23.9
2018-Apr-22 16:37 347 5 gusting 13 23.9
2018-Apr-22 16:32 001 4 gusting 13 23.9
2018-Apr-22 16:27 007 5 gusting 13 23.3
2018-Apr-22 16:22 354 4 gusting 13 23.3
2018-Apr-22 16:17 022 4 gusting 13 22.8
2018-Apr-22 16:12 024 3 gusting 13 23.3
2018-Apr-22 16:07 047 5 gusting 13 23.3
2018-Apr-22 16:02 022 2 gusting 13 23.3